User: anonymous   Login
Location: Newark
(46.3833°N, 12.2833°E)
Time: 08:39:18
(UTC+00:00)
Language:

SEEDS - Orbit

View from above orbital plane
View from above orbital plane
View from above satellite
View from above satellite

Ground track
Ground track

The orbit data is extracted from the following two-line orbital elements,

1 32791U 08021J   19291.79049942 +.00000153 +00000-0 +20816-4 0  9999
2 32791 097.5319 291.8705 0013110 184.5795 175.5306 14.90888564622229
Epoch (UTC): 18 October 2019 18:58:19
Eccentricity: 0.0013110
inclination: 97.5319°
perigee height: 586 km
apogee height: 604 km
right ascension of ascending node: 291.8705°
argument of perigee: 184.5795°
revolutions per day: 14.90888564
mean anomaly at epoch: 175.5306°
orbit number at epoch: 62222

The dashed part of the orbit path shows where the satellite is in the earth's shadow,  

DLR